Imperial, CA

6:33 AM PST on December 11, 2016 (GMT -0800)
Imperial County

Weather History for KIPL - December, 2011

Change the Weather History Date:

Tuesday, December 13, 2011

  Actual Average Record
Temperature  
Mean Temperature 49 °F -  
Max Temperature 52 °F 68 °F 81 °F (1952)
Min Temperature 45 °F 41 °F 27 °F (1949)
Degree Days  
Heating Degree Days 16    
Moisture  
Dew Point 47 °F    
Average Humidity 92    
Maximum Humidity 97    
Minimum Humidity 86    
Precipitation  
Precipitation 0.18 in - - ()
Sea Level Pressure  
Sea Level Pressure 29.91 in    
Wind  
Wind Speed 6 mph (West)    
Max Wind Speed 15 mph    
Max Gust Speed -    
Visibility 9 miles    
Events Rain    
Averages and records for this station are not official NWS values.
T = Trace of Precipitation, MM = Missing Value Source: NWS Daily Summary

Daily Weather History Graph

Daily Weather History Graph

Search for Another Location

Airport or City:

Trip Planner

Search our weather history database for the weather conditions in past years. The results will help you decide how hot, cold, wet, or windy it might be!

Date:

Astronomy

Dec. 13, 2011 Rise Set
Actual Time 6:35 AM PST 4:36 PM PST
Civil Twilight 6:08 AM PST 5:04 PM PST
Nautical Twilight 5:37 AM PST 5:34 PM PST
Astronomical Twilight 5:07 AM PST 6:05 PM PST
Moon 7:50 PM PST (12/13) 8:54 AM PST (12/13)
Length of Visible Light 10h 55m
Length of Day
10h 00m
Waning Gibbous, 90% of the Moon is Illuminated
Dec 13
Waning Gibbous
Dec 17
Last Quarter
Dec 24
New
Dec 31
First Quarter
Jan 8
Full

Hourly Weather History & Observations

Time (PST) Temp. Windchill Dew Point Humidity Pressure Visibility Wind Dir Wind Speed Gust Speed Precip Events Conditions
12:53 AM 46.0 °F 44.8 °F 45.0 °F 96% 29.86 in 6.0 mi NW 3.5 mph - N/A   Mostly Cloudy
1:53 AM 48.0 °F - 46.0 °F 93% 29.88 in 9.0 mi Calm Calm - N/A   Overcast
2:53 AM 48.9 °F - 48.0 °F 97% 29.86 in 6.0 mi North 9.2 mph - 0.01 in Rain Light Rain
3:53 AM 48.9 °F - 46.9 °F 93% 29.87 in 7.0 mi Calm Calm - 0.00 in   Clear
4:53 AM 48.0 °F - 46.0 °F 93% 29.87 in 6.0 mi WSW 3.5 mph - N/A   Mostly Cloudy
5:53 AM 46.9 °F - 45.0 °F 93% 29.87 in 8.0 mi West 3.5 mph - N/A   Mostly Cloudy
6:28 AM 48.2 °F - 46.4 °F 93% 29.88 in 10.0 mi NW 4.6 mph - N/A   Overcast
6:53 AM 50.0 °F - 46.0 °F 86% 29.88 in 10.0 mi NW 8.1 mph - N/A   Overcast
7:28 AM 50.0 °F - 46.4 °F 87% 29.88 in 10.0 mi NNW 6.9 mph - 0.00 in Rain Light Rain
7:53 AM 50.0 °F - 46.0 °F 86% 29.88 in 8.0 mi NW 8.1 mph - 0.00 in Rain Light Rain
8:18 AM 50.0 °F - 46.4 °F 87% 29.89 in 7.0 mi NNW 8.1 mph - N/A Rain Light Rain
8:53 AM 51.1 °F - 48.0 °F 89% 29.89 in 10.0 mi NNW 8.1 mph - 0.01 in   Overcast
9:53 AM 51.1 °F - 48.9 °F 92% 29.91 in 8.0 mi SW 9.2 mph - 0.02 in Rain Light Rain
10:12 AM 51.8 °F - 48.2 °F 88% 29.90 in 7.0 mi West 11.5 mph - 0.02 in Rain Light Rain
10:53 AM 51.1 °F - 50.0 °F 96% 29.89 in 8.0 mi West 11.5 mph - 0.02 in Rain Light Rain
11:17 AM 51.8 °F - 50.0 °F 94% 29.88 in 10.0 mi West 11.5 mph - 0.01 in Rain Light Rain
11:53 AM 51.1 °F - 50.0 °F 96% 29.87 in 9.0 mi West 12.7 mph - 0.03 in Rain Light Rain
12:53 PM 51.1 °F - 50.0 °F 96% 29.85 in 5.0 mi West 13.8 mph - 0.04 in Rain Rain
1:53 PM 52.0 °F - 50.0 °F 93% 29.86 in 10.0 mi West 13.8 mph - 0.01 in   Overcast
2:53 PM 51.1 °F - 48.9 °F 92% 29.87 in 10.0 mi WSW 15.0 mph - 0.00 in Rain Light Rain
3:53 PM 51.1 °F - 48.0 °F 89% 29.88 in 10.0 mi West 13.8 mph - 0.00 in   Overcast
4:53 PM 51.1 °F - 48.0 °F 89% 29.93 in 9.0 mi Variable 5.8 mph - 0.02 in Rain Light Rain
5:53 PM 50.0 °F - 48.0 °F 93% 29.95 in 10.0 mi SSE 4.6 mph - 0.01 in   Mostly Cloudy
6:53 PM 48.9 °F - 46.9 °F 93% 29.97 in 10.0 mi South 4.6 mph - N/A   Clear
7:53 PM 48.0 °F - 46.0 °F 93% 29.99 in 10.0 mi SSW 4.6 mph - 0.01 in   Mostly Cloudy
8:53 PM 46.9 °F - 45.0 °F 93% 30.01 in 10.0 mi South 3.5 mph - N/A   Clear
9:53 PM 46.0 °F - 44.1 °F 93% 30.03 in 10.0 mi Calm Calm - N/A   Clear
10:53 PM 46.0 °F 43.9 °F 43.0 °F 89% 30.04 in 10.0 mi SW 4.6 mph - N/A   Clear
11:53 PM 45.0 °F 41.8 °F 43.0 °F 93% 30.06 in 10.0 mi SW 5.8 mph - N/A   Clear